Datum;Boden20;Boden5;Luft20;Luft200;Luftmax;Luftmin;Relfeu;Regen;Strahlung;Wind;Windmax;Windrichtung;Sonnenscheindauer 
08.06.2020;13,3;13,3;7,1;8,5;9,4;6,0;94;0,0;0;0,4;1,3;---;--- 
07.06.2020;13,0;13,4;11,2;11,7;17,9;4,2;72;0,2;5757;1,4;8,6;---;13,7 
06.06.2020;13,0;13,4;10,0;10,1;16,6;4,4;84;1,5;5941;2,1;10,3;---;12,5 
05.06.2020;13,8;13,9;9,4;9,3;13,2;6,3;89;2,1;4222;2,2;12,7;---;10,6 
04.06.2020;14,7;15,1;11,8;11,9;16,1;8,5;97;12,0;1542;0,6;5,5;---;5,3 
03.06.2020;15,3;16,6;15,5;16,0;25,2;8,7;75;0,9;4521;0,8;4,9;---;10,8 
02.06.2020;14,9;16,9;16,2;17,2;26,3;6,8;61;0,0;7909;0,9;4,7;---;13,6 
01.06.2020;14,2;16,1;14,8;15,5;24,2;5,3;63;0,0;8347;1,3;9,3;---;13,6 
31.05.2020;13,9;15,3;12,7;12,8;18,8;6,8;66;0,0;6766;1,6;7,4;---;12,8 
30.05.2020;13,7;14,8;12,5;12,8;19,2;3,8;61;0,0;6482;1,6;9,7;---;13,3 
29.05.2020;13,8;15,3;12,3;12,8;20,0;4,1;63;0,0;7959;1,3;5,6;---;13,2 
28.05.2020;13,7;15,4;13,1;12,9;18,3;7,0;63;0,0;8393;2,0;9,8;---;13,5 
27.05.2020;13,1;14,5;13,2;13,8;22,9;0,0;69;0,0;6166;1,0;6,5;---;12,5 
26.05.2020;12,8;13,8;10,8;11,2;19,6;0,0;77;0,0;4715;0,8;3,9;---;12,8 
25.05.2020;12,7;14,1;12,7;12,8;17,3;9,8;78;0,7;3133;1,6;7,9;---;8,1 
24.05.2020;12,9;13,1;10,4;10,6;15,1;5,2;82;0,6;2328;1,7;7,8;---;6,0 
23.05.2020;13,9;14,9;12,6;12,8;16,1;9,2;80;2,1;2184;1,8;6,4;---;7,0 
22.05.2020;14,1;15,6;15,5;16,2;22,2;8,4;83;1,0;2200;1,6;6,4;---;10,0 
21.05.2020;13,4;15,7;14,3;14,8;24,0;4,8;73;0,0;5072;0,9;4,2;---;12,4 
20.05.2020;13,5;15,5;14,2;14,2;17,9;10,1;82;0,0;2610;1,4;5,3;---;8,8 
19.05.2020;12,7;14,8;14,4;14,8;21,5;5,7;68;0,0;3791;1,2;6,8;---;11,5 
18.05.2020;11,6;13,9;13,1;13,8;23,4;3,2;66;0,0;4848;1,2;6,3;---;11,5 
17.05.2020;10,7;12,8;10,6;11,0;18,5;3,8;66;0,0;4943;1,1;6,0;---;11,9 
16.05.2020;9,9;10,9;8,1;8,5;17,5;-1,2;70;0,0;3852;0,9;4,6;---;11,6 
15.05.2020;9,7;10,9;7,3;7,2;13,7;0,8;65;0,0;4955;1,9;6,9;---;12,2 
14.05.2020;9,3;10,5;7,0;6,7;11,8;3,2;73;0,0;4047;2,0;6,9;---;10,6 
13.05.2020;8,9;8,8;5,2;5,2;11,4;-2,3;75;0,0;2559;0,8;7,3;---;9,2 
12.05.2020;9,3;8,8;4,6;4,7;9,1;-2,6;70;0,0;2655;1,1;5,2;---;10,5 
11.05.2020;11,4;11,0;5,2;5,0;12,2;1,7;81;0,8;1424;3,6;11,6;---;3,3 
10.05.2020;12,5;13,6;12,1;12,3;19,8;6,2;90;4,2;1413;0,7;4,2;---;3,8 
09.05.2020;12,4;14,7;13,7;14,2;21,8;6,7;63;0,0;3885;1,0;4,8;---;11,2 
08.05.2020;11,5;13,8;12,3;12,5;21,1;4,1;61;0,0;4373;0,9;4,5;---;10,4 
07.05.2020;10,5;12,4;10,2;10,4;19,6;0,2;60;0,0;4950;1,0;5,5;---;11,6 
06.05.2020;9,8;11,2;7,5;7,6;15,6;-1,8;66;0,0;4986;1,1;5,8;---;11,8 
05.05.2020;9,7;10,7;6,4;6,3;11,8;0,3;72;0,0;4639;1,7;7,6;---;11,4 
04.05.2020;10,2;10,9;8,4;8,4;11,6;4,5;90;2,1;1411;1,2;6,4;---;4,2 
03.05.2020;9,9;10,5;8,5;8,6;14,4;0,6;82;0,0;2664;1,1;5,2;---;8,4 
02.05.2020;10,1;10,7;7,6;7,4;11,6;4,8;88;2,0;2539;2,0;7,7;---;7,1 
01.05.2020;10,4;10,9;8,7;8,5;12,3;4,8;88;3,7;2850;2,7;8,7;---;9,2 
30.04.2020;11,0;11,9;10,7;10,7;14,4;6,6;86;16,7;2602;3,5;10,0;---;7,9 
29.04.2020;10,8;12,0;11,7;11,9;16,2;7,3;81;0,2;2615;1,9;11,0;---;8,9 
28.04.2020;10,9;11,5;10,2;10,6;15,0;3,6;84;0,5;1570;1,4;6,8;---;6,2 
27.04.2020;10,9;12,5;12,0;12,3;21,1;1,3;62;0,0;4449;1,7;8,6;---;11,0 
26.04.2020;10,6;12,0;9,4;9,6;19,1;-0,6;68;0,0;4104;1,0;7,7;---;11,1 
25.04.2020;10,8;12,6;8,7;8,5;14,9;4,7;69;0,0;3970;1,7;7,5;---;10,6 
24.04.2020;10,6;12,4;11,8;12,2;19,7;3,7;61;1,4;3997;1,4;8,9;---;10,4 
23.04.2020;10,0;11,7;11,8;12,5;19,9;4,3;53;0,0;4595;1,4;7,2;---;11,2 
22.04.2020;9,6;11,1;11,6;12,1;18,2;3,7;51;0,0;4640;2,7;9,9;---;11,3 
21.04.2020;9,6;10,5;10,5;10,8;16,0;2,0;52;0,0;4584;3,9;12,2;---;11,2 
20.04.2020;10,0;10,9;8,9;9,3;14,4;2,1;53;0,0;4575;3,3;11,2;---;11,2 
19.04.2020;10,8;12,7;10,7;10,6;14,4;6,4;80;2,0;2995;2,2;7,9;---;9,0 
18.04.2020;10,2;11,9;11,5;11,6;22,3;4,5;78;9,1;2619;1,0;6,7;---;6,6 
17.04.2020;9,8;12,1;11,8;12,0;19,3;3,8;66;0,0;4057;1,7;5,4;---;10,7 
16.04.2020;8,6;10,5;11,7;12,0;22,4;0,4;55;0,0;4039;1,3;5,4;---;9,9 
15.04.2020;7,6;8,6;6,8;6,8;17,9;-2,9;65;0,0;3860;1,2;5,3;---;10,1 
14.04.2020;8,0;8,0;4,4;4,0;8,9;1,1;62;0,0;2620;2,3;7,9;---;9,0 
13.04.2020;9,5;10,3;7,2;7,2;12,0;1,7;65;0,0;2774;2,9;11,3;---;8,1 
12.04.2020;9,4;11,1;12,4;12,8;23,2;2,5;56;0,0;3506;1,8;8,5;---;8,9 
11.04.2020;9,0;10,3;9,3;9,7;19,6;-0,9;53;0,0;4059;1,0;4,4;---;10,2 
10.04.2020;9,3;11,0;10,6;10,8;17,1;3,6;65;0,0;4022;1,7;8,5;---;10,6 
09.04.2020;9,2;11,1;11,8;12,0;18,8;3,2;66;0,0;3835;1,7;6,9;---;10,2 
08.04.2020;8,6;10,9;13,3;13,9;22,5;4,4;64;0,0;3672;0,9;4,2;---;10,0 
07.04.2020;7,6;9,8;11,9;12,3;18,7;6,0;71;0,0;3183;1,4;5,9;---;9,5 
06.04.2020;6,4;8,1;11,2;11,6;20,6;-0,4;55;0,0;3921;2,6;8,8;---;10,4 
05.04.2020;5,6;6,9;8,8;9,2;16,6;-0,7;59;0,0;3929;2,6;10,2;---;10,2 
04.04.2020;4,8;6,1;5,6;5,6;12,0;-3,6;71;0,1;3951;1,2;6,6;---;10,9 
03.04.2020;4,8;5,2;5,4;5,4;6,8;3,6;84;0,2;525;1,4;5,9;---;0,5 
02.04.2020;4,2;5,0;3,6;3,6;11,3;-4,9;70;0,0;3606;1,3;7,6;---;9,9 
01.04.2020;3,7;4,3;1,8;1,7;9,5;-6,0;66;0,0;3756;1,1;5,0;---;10,1 
31.03.2020;3,7;4,4;2,1;1,8;6,6;-1,2;77;1,0;2900;1,8;7,3;---;8,3 
30.03.2020;3,4;3,0;0,2;0,0;4,9;-6,2;69;0,1;2549;1,4;6,5;---;7,7 
29.03.2020;4,7;4,5;2,0;1,8;4,1;-0,2;82;0,1;1366;3,8;14,3;---;4,8 
28.03.2020;4,7;5,9;7,1;7,5;12,9;2,2;63;0,0;3416;2,8;7,5;---;9,7 
27.03.2020;3,6;4,5;6,6;7,0;15,3;-0,7;61;0,0;3221;2,5;9,0;---;9,5 
26.03.2020;3,0;3,0;3,3;3,3;8,1;-3,4;56;0,0;3410;2,9;10,2;---;9,6 
25.03.2020;3,0;2,8;2,2;2,3;9,0;-5,4;49;0,0;3535;2,5;9,0;---;9,8 
24.03.2020;3,1;2,6;1,3;1,2;6,9;-4,5;53;0,0;3489;2,6;7,5;---;9,7 
23.03.2020;3,5;2,7;0,7;0,5;5,6;-5,0;54;0,0;3457;3,2;8,5;---;9,7 
22.03.2020;4,6;3,6;1,7;1,6;4,7;-2,2;62;0,0;3458;3,8;10,2;---;9,7 
21.03.2020;6,0;5,8;3,5;3,2;5,6;0,4;80;0,2;2221;4,3;11,9;---;7,7 
20.03.2020;7,2;7,7;6,4;6,3;9,3;3,4;98;0,1;416;2,6;7,6;---;--- 
19.03.2020;6,9;8,1;8,8;9,0;14,5;2,9;79;0,0;1975;1,0;4,1;---;7,3 
18.03.2020;6,5;7,4;8,2;8,6;15,5;0,4;73;0,0;2995;2,1;7,9;---;8,7 
17.03.2020;6,3;7,8;9,1;9,4;15,6;5,2;72;0,0;2609;1,1;5,0;---;7,0 
16.03.2020;5,2;6,0;7,5;7,9;15,5;-1,1;75;0,0;2632;1,7;6,4;---;7,7 
15.03.2020;5,1;5,5;6,4;6,6;11,5;2,1;76;0,0;2743;4,5;11,8;---;8,3 
14.03.2020;5,3;5,5;3,5;3,4;8,4;-1,4;89;0,1;1895;1,4;5,7;---;7,5 
13.03.2020;5,9;5,9;4,9;5,2;8,7;2,5;79;0,4;2202;3,3;11,8;---;7,0 
12.03.2020;6,7;8,3;9,0;9,2;11,2;3,6;73;0,8;2410;4,0;13,5;---;7,1 
11.03.2020;5,6;7,7;9,8;9,8;13,3;6,0;93;1,5;1175;2,1;7,6;---;3,0 
10.03.2020;4,5;4,9;5,6;5,5;10,6;2,4;97;7,2;550;5,0;13,8;---;0,1 
09.03.2020;4,6;5,8;5,9;6,0;8,4;3,4;87;1,6;1938;2,3;7,6;---;6,7 
08.03.2020;3,8;4,3;5,3;5,4;9,0;2,1;85;0,0;1393;4,6;11,5;---;5,2 
07.03.2020;3,7;4,1;3,4;3,3;6,4;1,7;85;2,0;1282;1,9;8,0;---;3,5 
06.03.2020;3,6;4,0;3,5;3,3;4,7;2,5;96;10,6;460;2,1;7,8;---;0,8 
05.03.2020;3,2;3,2;2,9;2,8;6,5;-0,5;95;3,3;618;2,7;7,7;---;0,8 
04.03.2020;3,4;3,1;2,2;2,2;7,4;-1,3;89;0,0;1241;2,4;6,1;---;4,7 
03.03.2020;4,2;4,7;3,9;4,0;7,0;0,5;83;3,0;1901;1,5;7,0;---;6,1 
02.03.2020;3,9;4,5;4,6;4,5;8,4;0,8;90;3,2;1486;2,6;7,9;---;4,2 
01.03.2020;3,6;4,1;4,5;4,7;8,8;2,0;84;1,5;1727;4,4;11,8;---;5,6 
29.02.2020;3,1;3,7;4,8;4,7;10,1;0,2;94;5,9;1003;5,7;12,7;---;3,4 
28.02.2020;2,8;2,4;1,5;1,6;3,5;-0,3;90;3,9;1210;2,6;13,2;---;4,7 
27.02.2020;3,3;2,6;0,9;0,8;2,7;-0,2;95;3,2;566;2,3;7,1;---;0,4 
26.02.2020;4,0;3,7;1,8;1,6;2,8;-0,2;93;2,1;988;2,5;8,4;---;3,4 
25.02.2020;4,4;5,4;6,9;7,1;8,6;2,0;79;2,6;1647;3,6;12,9;---;4,8 
24.02.2020;4,0;3,8;3,5;3,5;7,8;-0,4;91;2,5;411;3,6;10,9;---;0,1 
23.02.2020;4,2;5,6;7,6;7,5;11,0;4,8;92;13,4;411;4,0;17,6;---;0,1 
22.02.2020;3,4;3,6;5,2;5,4;9,3;1,3;82;0,9;834;5,4;14,5;---;2,6 
21.02.2020;3,6;3,9;4,1;4,3;5,8;2,4;79;2,7;1267;3,2;11,3;---;3,8 
20.02.2020;3,2;3,3;3,9;3,8;7,4;0,4;92;0,7;630;4,8;12,7;---;1,5 
19.02.2020;3,7;3,6;3,2;3,2;5,2;1,1;88;4,8;1060;3,5;12,5;---;3,4 
18.02.2020;4,1;4,4;4,2;4,2;5,8;2,5;90;3,5;1385;3,5;11,0;---;4,3 
17.02.2020;4,7;5,5;6,5;6,7;13,0;3,3;82;0,8;855;4,3;13,3;---;2,8 
16.02.2020;3,7;5,2;9,3;9,7;13,4;5,7;79;0,9;1049;7,8;16,5;---;3,2 
15.02.2020;2,6;3,1;4,5;4,8;7,9;1,7;93;0,0;1001;4,7;13,2;---;3,3 
14.02.2020;2,2;2,6;3,6;3,6;5,4;1,4;93;0,2;578;1,6;6,6;---;1,4 
13.02.2020;1,9;1,2;0,9;0,9;2,6;-0,7;97;5,3;210;4,3;12,4;---;--- 
12.02.2020;2,4;1,9;2,5;2,8;5,0;0,0;76;0,5;1446;3,4;12,8;---;5,3 
11.02.2020;3,1;2,6;2,8;3,0;5,0;0,1;77;5,8;1216;4,4;19,4;---;6,2 
10.02.2020;3,5;4,5;5,7;5,5;10,3;1,4;87;24,2;687;5,3;19,9;---;3,5 
09.02.2020;2,0;2,6;5,3;5,5;9,6;1,0;87;1,1;841;7,3;23,0;---;2,9 
08.02.2020;1,9;1,1;0,3;0,3;2,7;-2,7;93;0,0;586;3,6;9,5;---;2,1 
07.02.2020;2,5;2,4;2,1;2,1;5,0;-1,0;86;0,0;1210;2,1;7,9;---;5,0 
06.02.2020;2,3;1,6;1,1;1,2;3,3;-2,4;91;0,0;379;1,1;6,3;---;--- 
05.02.2020;3,4;2,6;2,0;2,1;5,9;-2,0;80;0,0;1573;2,1;10,6;---;6,9 
04.02.2020;4,4;4,3;2,7;2,5;5,4;0,5;95;9,3;654;1,7;10,5;---;3,4 
03.02.2020;4,8;5,7;8,3;8,5;9,7;5,3;80;0,2;688;2,6;11,8;---;3,4 
02.02.2020;4,7;5,3;7,0;7,0;10,7;4,1;85;2,6;331;3,1;12,6;---;--- 
01.02.2020;4,7;6,2;9,0;9,1;10,1;7,6;91;8,2;192;3,9;11,0;---;--- 
31.01.2020;3,3;5,1;9,6;9,8;12,2;5,2;87;0,6;720;3,4;11,1;---;4,1 
30.01.2020;1,8;2,2;4,0;4,1;7,0;1,5;92;0,3;559;4,4;12,5;---;1,5 
29.01.2020;1,6;1,6;2,1;2,2;4,1;0,3;87;0,2;396;2,7;11,6;---;1,5 
28.01.2020;1,8;2,4;3,1;3,0;4,3;0,3;94;6,9;487;4,7;13,9;---;1,2 
27.01.2020;0,7;1,0;2,7;2,6;4,6;0,6;100;3,2;189;4,4;10,8;---;--- 
26.01.2020;0,6;0,2;-0,5;-0,7;0,7;-2,3;100;0,0;365;3,3;9,3;---;--- 
25.01.2020;0,6;0,2;-2,2;-2,6;-1,0;-3,9;100;0,0;267;2,5;5,7;---;--- 
24.01.2020;0,7;0,2;-1,9;-2,2;-1,7;-4,3;100;0,0;240;3,1;7,9;---;--- 
23.01.2020;0,8;0,2;-0,1;-0,2;0,6;-3,9;97;0,0;283;1,0;5,0;---;--- 
22.01.2020;1,0;0,2;-2,0;-2,1;2,0;-6,9;98;0,1;431;0,9;3,1;---;1,3 
21.01.2020;1,6;0,6;-2,1;-2,2;4,6;-6,2;95;0,1;1246;0,9;4,3;---;5,6 
20.01.2020;2,3;1,9;0,9;1,0;5,0;-2,9;95;0,0;518;0,7;3,9;---;0,8 
19.01.2020;2,5;2,2;1,6;1,5;2,6;0,0;98;1,1;291;1,2;5,4;---;--- 
18.01.2020;3,1;2,8;2,7;2,8;5,3;-0,2;91;0,3;510;1,8;8,0;---;2,2 
17.01.2020;3,2;3,0;3,7;3,9;6,1;-1,4;96;0,0;734;2,8;9,5;---;3,3 
16.01.2020;3,9;4,0;4,8;5,2;9,3;-0,6;97;0,6;621;1,6;7,6;---;3,6 
15.01.2020;3,9;4,6;7,6;8,0;9,5;5,3;82;0,0;826;5,1;12,1;---;4,0 
14.01.2020;3,3;3,9;5,7;5,8;8,1;3,8;91;0,0;382;5,7;12,4;---;--- 
13.01.2020;2,7;3,1;3,9;3,9;4,6;3,2;99;0,4;319;3,8;8,5;---;0,6 
12.01.2020;2,5;1,8;1,4;1,4;3,6;-0,6;97;0,1;411;5,2;13,2;---;0,9 
11.01.2020;3,8;3,4;2,3;2,4;3,8;-0,1;91;0,0;596;2,7;10,1;---;2,4 
10.01.2020;4,4;5,7;6,7;6,6;8,7;3,4;97;2,4;380;3,2;9,9;---;1,3 
09.01.2020;3,2;4,7;7,3;7,3;9,3;4,9;100;9,7;75;4,5;10,1;---;--- 
08.01.2020;2,1;2,7;3,9;3,8;5,1;2,7;99;0,9;201;4,9;11,8;---;--- 
07.01.2020;1,6;1,7;1,8;1,6;3,9;-0,7;100;0,1;348;3,5;9,8;---;--- 
06.01.2020;1,4;1,6;2,1;2,1;3,1;-0,4;95;0,0;274;2,6;9,5;---;--- 
05.01.2020;0,9;0,8;1,4;1,5;2,9;-2,2;99;0,3;92;1,4;5,4;---;--- 
04.01.2020;0,6;0,2;3,3;3,4;5,0;1,2;93;2,1;121;1,7;12,4;---;--- 
03.01.2020;0,5;0,0;2,4;2,4;5,9;-0,6;99;4,1;73;4,0;9,4;---;--- 
02.01.2020;0,6;-0,1;-2,2;-2,3;-0,6;-4,1;99;0,0;130;3,8;10,7;---;--- 
01.01.2020;0,8;0,1;-2,0;-1,9;1,7;-6,4;98;0,0;902;1,8;6,9;---;4,5 
